ELY338 EHAM-LLBG

Flight info

Callsign ELY338
Flight time N/A
Altitude 41000
Route EDUPO Z739 MISGO DCT TIVUN DCT ESAMA DCT OSBIT DCT BARSU DCT DEXIT DCT STEIN DCT BABIT DCT NISVA DCT RODIP DCT BELGI UN131 KULAR UT39 TOMBI DCT IDAKU L35 PIKOG L609 ZUKKO
Aircraft B788/H-SDE1E2E3FGHIJ2J3J4J5M1RWXY/LB1D1

Departure

Time 2026-04-29 13:35
Airport Amsterdam Airport Schiphol (EHAM)

Arrival

Time N/A
Airport Ben Gurion International Airport (LLBG)
Time Latitude Longitude Altitude Speed Heading
2026-04-29 13:07 52.31186 4.75840 2 ft 0 kts 267°
2026-04-29 13:19 52.31186 4.75841 2 ft 2 kts 267°
2026-04-29 13:19 52.31187 4.75880 1 ft 4 kts 268°
2026-04-29 13:20 52.31188 4.75920 5 ft 4 kts 268°
2026-04-29 13:20 52.31189 4.75960 5 ft 4 kts 268°
2026-04-29 13:20 52.31200 4.75942 4 ft 3 kts
2026-04-29 13:20 52.31225 4.75942 3 ft 4 kts 359°
2026-04-29 13:21 52.31231 4.75942 3 ft 0 kts 358°
2026-04-29 13:23 52.31273 4.75939 3 ft 13 kts 357°
2026-04-29 13:24 52.31414 4.75927 4 ft 24 kts 355°
2026-04-29 13:24 52.31526 4.75847 4 ft 12 kts 287°
2026-04-29 13:24 52.31524 4.75727 1 ft 14 kts 265°
2026-04-29 13:24 52.31517 4.75553 1 ft 16 kts 267°
2026-04-29 13:25 52.31510 4.75360 -1 ft 21 kts 267°
2026-04-29 13:25 52.31493 4.74839 3 ft 23 kts 266°
2026-04-29 13:25 52.31485 4.74588 6 ft 21 kts 266°
2026-04-29 13:26 52.31481 4.74360 6 ft 17 kts 287°
2026-04-29 13:26 52.31567 4.74300 6 ft 13 kts 359°
2026-04-29 13:26 52.31658 4.74306 6 ft 13 kts
2026-04-29 13:26 52.31754 4.74315 3 ft 15 kts
2026-04-29 13:27 52.31880 4.74326 0 ft 20 kts
2026-04-29 13:27 52.32008 4.74307 0 ft 16 kts 316°
2026-04-29 13:27 52.32035 4.74141 0 ft 14 kts 272°
2026-04-29 13:27 52.32038 4.74045 1 ft 0 kts 272°
2026-04-29 13:28 52.32038 4.74044 1 ft 1 kts 272°
2026-04-29 13:28 52.32041 4.73941 3 ft 16 kts 273°
2026-04-29 13:29 52.32049 4.73711 6 ft 21 kts 274°
2026-04-29 13:29 52.32062 4.73472 7 ft 21 kts 279°
2026-04-29 13:29 52.32141 4.73283 5 ft 21 kts 320°
2026-04-29 13:29 52.32254 4.73127 3 ft 22 kts 320°
2026-04-29 13:30 52.32370 4.72961 3 ft 22 kts 319°
2026-04-29 13:30 52.32485 4.72799 3 ft 22 kts 319°
2026-04-29 13:30 52.32599 4.72637 3 ft 21 kts 319°
2026-04-29 13:30 52.32702 4.72478 5 ft 20 kts 314°
2026-04-29 13:31 52.32804 4.72290 6 ft 19 kts 311°
2026-04-29 13:31 52.32898 4.72114 3 ft 21 kts 311°
2026-04-29 13:31 52.32995 4.71933 3 ft 21 kts 310°
2026-04-29 13:31 52.33091 4.71757 4 ft 21 kts 310°
2026-04-29 13:32 52.33150 4.71559 5 ft 19 kts 262°
2026-04-29 13:32 52.33072 4.71402 5 ft 19 kts 220°
2026-04-29 13:32 52.32968 4.71256 3 ft 20 kts 222°
2026-04-29 13:32 52.32875 4.71094 2 ft 18 kts 246°
2026-04-29 13:33 52.32877 4.70932 2 ft 11 kts 298°
2026-04-29 13:33 52.32936 4.70891 2 ft 10 kts
2026-04-29 13:33 52.32950 4.70892 1 ft 0 kts
2026-04-29 13:34 52.32966 4.70893 1 ft 10 kts
2026-04-29 13:35 52.33276 4.70920 -1 ft 86 kts
2026-04-29 13:35 52.34136 4.70999 44 ft 155 kts
2026-04-29 13:35 52.35212 4.71070 892 ft 156 kts
2026-04-29 13:35 52.36332 4.71024 1752 ft 165 kts
2026-04-29 13:36 52.37507 4.71303 2626 ft 177 kts 14°
2026-04-29 13:36 52.38775 4.71477 3532 ft 189 kts 11°
2026-04-29 13:36 52.40091 4.71739 4373 ft 189 kts 28°
2026-04-29 13:36 52.40950 4.73191 5194 ft 184 kts 65°
2026-04-29 13:37 52.41317 4.75225 6059 ft 192 kts 86°
2026-04-29 13:37 52.41072 4.77412 6930 ft 203 kts 108°
2026-04-29 13:37 52.40493 4.79559 7808 ft 210 kts 111°
2026-04-29 13:37 52.39923 4.81816 8682 ft 218 kts 108°
2026-04-29 13:38 52.39377 4.84175 9588 ft 226 kts 108°
2026-04-29 13:38 52.38812 4.86619 10481 ft 233 kts 108°
2026-04-29 13:38 52.38218 4.89146 11210 ft 245 kts 108°
2026-04-29 13:38 52.37586 4.91838 11811 ft 263 kts 108°
2026-04-29 13:39 52.36905 4.94722 12436 ft 279 kts 108°
2026-04-29 13:39 52.36187 4.97772 13082 ft 295 kts 108°
2026-04-29 13:39 52.35426 5.00995 13742 ft 310 kts 108°
2026-04-29 13:39 52.34628 5.04363 14382 ft 324 kts 108°
2026-04-29 13:40 52.33786 5.07860 14994 ft 337 kts 111°
2026-04-29 13:40 52.32476 5.11062 15624 ft 352 kts 127°
2026-04-29 13:40 52.30957 5.13874 16212 ft 363 kts 128°
2026-04-29 13:40 52.29293 5.16850 16833 ft 372 kts 129°
2026-04-29 13:41 52.27536 5.20003 17491 ft 378 kts 128°
2026-04-29 13:41 52.25770 5.23226 18161 ft 384 kts 128°
2026-04-29 13:41 52.24029 5.26563 18820 ft 385 kts 122°
2026-04-29 13:41 52.22484 5.30156 19431 ft 388 kts 122°
2026-04-29 13:42 52.20919 5.33765 20028 ft 390 kts 122°
2026-04-29 13:42 52.19344 5.37376 20638 ft 392 kts 122°
2026-04-29 13:42 52.18296 5.39783 21061 ft 393 kts 122°
2026-04-29 13:42 52.16714 5.43422 21694 ft 395 kts 122°
2026-04-29 13:43 52.15116 5.47090 22340 ft 398 kts 121°
2026-04-29 13:43 52.13508 5.50770 23005 ft 400 kts 122°
2026-04-29 13:43 52.11890 5.54469 23690 ft 402 kts 121°
2026-04-29 13:43 52.10264 5.58181 24307 ft 403 kts 121°
2026-04-29 13:44 52.08632 5.61904 24899 ft 404 kts 121°
2026-04-29 13:44 52.07000 5.65620 25493 ft 404 kts 121°
2026-04-29 13:44 52.05268 5.69210 26119 ft 405 kts 127°
2026-04-29 13:44 52.03412 5.72654 26740 ft 404 kts 126°
2026-04-29 13:45 52.01597 5.76052 27361 ft 402 kts 126°
2026-04-29 13:45 51.99766 5.79477 28012 ft 400 kts 126°
2026-04-29 13:45 51.97944 5.82867 28673 ft 398 kts 126°
2026-04-29 13:45 51.96129 5.86240 29355 ft 395 kts 126°
2026-04-29 13:46 51.94339 5.89589 30031 ft 391 kts 125°
2026-04-29 13:46 51.92561 5.92915 30692 ft 388 kts 125°
2026-04-29 13:46 51.90800 5.96195 31295 ft 383 kts 125°
2026-04-29 13:46 51.89058 5.99430 31913 ft 379 kts 125°
2026-04-29 13:47 51.87337 6.02627 32543 ft 374 kts 124°
2026-04-29 13:47 51.85627 6.05807 32912 ft 376 kts 124°
2026-04-29 13:47 51.83895 6.09017 33166 ft 382 kts 125°
2026-04-29 13:47 51.82123 6.12261 33432 ft 387 kts 125°
2026-04-29 13:48 51.80331 6.15537 33701 ft 391 kts 125°
2026-04-29 13:48 51.78548 6.18808 33975 ft 394 kts 125°
2026-04-29 13:48 51.76728 6.22147 34261 ft 398 kts 125°
2026-04-29 13:48 51.74887 6.25509 34505 ft 402 kts 125°
2026-04-29 13:49 51.73026 6.28900 34745 ft 405 kts 125°
2026-04-29 13:49 51.71148 6.32320 34997 ft 408 kts 125°
2026-04-29 13:49 51.69262 6.35753 35251 ft 411 kts 126°
2026-04-29 13:49 51.67355 6.39219 35476 ft 415 kts 126°
2026-04-29 13:50 51.65430 6.42709 35741 ft 417 kts 126°
2026-04-29 13:50 51.63493 6.46218 35994 ft 420 kts 126°
2026-04-29 13:50 51.61544 6.49745 36244 ft 422 kts 126°
2026-04-29 13:50 51.59583 6.53292 36500 ft 425 kts 127°
2026-04-29 13:51 51.57618 6.56841 36764 ft 427 kts 127°
2026-04-29 13:51 51.55636 6.60412 37036 ft 428 kts 127°
2026-04-29 13:51 51.53672 6.63947 37274 ft 430 kts 127°
2026-04-29 13:51 51.51674 6.67539 37546 ft 432 kts 127°
2026-04-29 13:52 51.49670 6.71139 37822 ft 433 kts 128°
2026-04-29 13:52 51.47659 6.74742 38085 ft 434 kts 128°
2026-04-29 13:52 51.45635 6.78364 38363 ft 436 kts 128°
2026-04-29 13:52 51.43608 6.81988 38641 ft 437 kts 128°
2026-04-29 13:53 51.41578 6.85612 38921 ft 438 kts 128°
2026-04-29 13:53 51.39691 6.89413 39185 ft 433 kts 120°
2026-04-29 13:53 51.38000 6.93421 39407 ft 434 kts 121°
2026-04-29 13:53 51.36290 6.97410 39638 ft 435 kts 121°
2026-04-29 13:54 51.34580 7.01396 39846 ft 435 kts 121°
2026-04-29 13:54 51.32895 7.05345 40077 ft 435 kts 121°
2026-04-29 13:54 51.31189 7.09340 40313 ft 436 kts 121°
2026-04-29 13:54 51.29451 7.13387 40547 ft 436 kts 121°
2026-04-29 13:55 51.27730 7.17387 40786 ft 437 kts 121°
2026-04-29 13:55 51.26034 7.21329 41012 ft 437 kts 122°
2026-04-29 13:55 51.24314 7.25325 41250 ft 437 kts 122°
2026-04-29 13:55 51.22583 7.29340 41303 ft 442 kts 122°
2026-04-29 13:56 51.19037 7.37534 41303 ft 454 kts 122°
2026-04-29 13:56 51.15397 7.45922 41307 ft 466 kts 122°
2026-04-29 13:57 51.11657 7.54511 41306 ft 477 kts 122°
2026-04-29 13:57 51.07833 7.63267 41292 ft 487 kts 122°
2026-04-29 13:58 51.03930 7.72168 41296 ft 493 kts 122°
2026-04-29 13:58 50.99994 7.81117 41300 ft 494 kts 122°
2026-04-29 13:59 50.96055 7.90040 41309 ft 494 kts 122°
2026-04-29 13:59 50.92002 7.98751 41340 ft 496 kts 133°
2026-04-29 14:00 50.87031 8.06406 41318 ft 498 kts 134°
2026-04-29 14:00 50.82032 8.14028 41306 ft 499 kts 134°
2026-04-29 14:01 50.77029 8.21647 41293 ft 499 kts 134°
2026-04-29 14:01 50.72049 8.29191 41298 ft 499 kts 134°
2026-04-29 14:02 50.67003 8.36826 41298 ft 500 kts 134°
2026-04-29 14:02 50.62007 8.44352 41296 ft 500 kts 134°
2026-04-29 14:03 50.56978 8.51909 41298 ft 500 kts 134°
2026-04-29 14:03 50.51940 8.59453 41301 ft 500 kts 135°
2026-04-29 14:04 50.46888 8.66999 41293 ft 501 kts 135°
2026-04-29 14:04 50.41834 8.74521 41290 ft 501 kts 135°
2026-04-29 14:05 50.36773 8.82033 41287 ft 501 kts 134°
2026-04-29 14:05 50.34473 8.86100 41312 ft 498 kts 122°
2026-04-29 14:05 50.32729 8.90773 41307 ft 496 kts 111°
2026-04-29 14:06 50.29882 9.00609 41284 ft 497 kts 112°
2026-04-29 14:06 50.27045 9.10405 41285 ft 498 kts 112°
2026-04-29 14:07 50.24167 9.20261 41280 ft 498 kts 112°
2026-04-29 14:07 50.21286 9.30119 41277 ft 499 kts 112°
2026-04-29 14:08 50.18389 9.39969 41283 ft 499 kts 112°
2026-04-29 14:08 50.15490 9.49803 41275 ft 498 kts 112°
2026-04-29 14:09 50.12580 9.59619 41278 ft 498 kts 112°
2026-04-29 14:09 50.09671 9.69403 41281 ft 498 kts 112°
2026-04-29 14:10 50.06786 9.79226 41291 ft 498 kts 108°
2026-04-29 14:10 50.04349 9.89322 41291 ft 499 kts 108°
2026-04-29 14:11 50.01902 9.99363 41294 ft 500 kts 108°
2026-04-29 14:11 49.99428 10.09496 41292 ft 501 kts 108°
2026-04-29 14:12 49.96943 10.19615 41289 ft 501 kts 109°
2026-04-29 14:12 49.94453 10.29714 41294 ft 501 kts 109°
2026-04-29 14:13 49.91894 10.39789 41303 ft 502 kts 115°
2026-04-29 14:13 49.88717 10.49477 41290 ft 504 kts 115°
2026-04-29 14:14 49.85529 10.59163 41287 ft 504 kts 115°
2026-04-29 14:14 49.82340 10.68840 41288 ft 505 kts 115°
2026-04-29 14:15 49.79131 10.78505 41287 ft 504 kts 115°
2026-04-29 14:15 49.75924 10.88157 41278 ft 504 kts 115°
2026-04-29 14:16 49.72704 10.97794 41280 ft 505 kts 115°
2026-04-29 14:16 49.69472 11.07440 41274 ft 505 kts 115°
2026-04-29 14:17 49.66250 11.17012 41278 ft 506 kts 115°
2026-04-29 14:17 49.63001 11.26632 41275 ft 506 kts 115°
2026-04-29 14:18 49.59740 11.36250 41275 ft 506 kts 116°
2026-04-29 14:18 49.56468 11.45863 41272 ft 507 kts 116°
2026-04-29 14:19 49.53185 11.55475 41271 ft 507 kts 116°
2026-04-29 14:19 49.49887 11.65092 41275 ft 508 kts 116°
2026-04-29 14:20 49.46580 11.74699 41270 ft 508 kts 116°
2026-04-29 14:20 49.43263 11.84300 41270 ft 508 kts 116°
2026-04-29 14:21 49.39957 11.93835 41275 ft 509 kts 116°
2026-04-29 14:21 49.36619 12.03424 41272 ft 509 kts 116°
2026-04-29 14:22 49.33269 12.13013 41268 ft 510 kts 116°
2026-04-29 14:22 49.29914 12.22578 41266 ft 510 kts 117°
2026-04-29 14:23 49.26544 12.32152 41269 ft 510 kts 117°
2026-04-29 14:23 49.23169 12.41707 41265 ft 510 kts 117°
2026-04-29 14:24 49.19784 12.51253 41251 ft 510 kts 117°
2026-04-29 14:24 49.16414 12.60721 41248 ft 510 kts 117°
2026-04-29 14:25 49.13017 12.70229 41248 ft 509 kts 117°
2026-04-29 14:25 49.09609 12.79737 41248 ft 511 kts 117°
2026-04-29 14:26 49.06185 12.89251 41250 ft 512 kts 117°
2026-04-29 14:26 49.02748 12.98768 41247 ft 513 kts 117°
2026-04-29 14:27 48.99296 13.08292 41256 ft 514 kts 117°
2026-04-29 14:28 48.94091 13.22583 41251 ft 515 kts 118°
2026-04-29 14:28 48.90612 13.32094 41253 ft 514 kts 118°
2026-04-29 14:29 48.87128 13.41582 41252 ft 514 kts 118°
2026-04-29 14:29 48.83659 13.50996 41248 ft 514 kts 118°
2026-04-29 14:30 48.80161 13.60456 41249 ft 515 kts 118°
2026-04-29 14:30 48.76641 13.69937 41250 ft 515 kts 119°
2026-04-29 14:31 48.72718 13.79036 41246 ft 516 kts 123°
2026-04-29 14:31 48.68735 13.88094 41250 ft 517 kts 123°
2026-04-29 14:32 48.64746 13.97136 41252 ft 517 kts 123°
2026-04-29 14:32 48.61420 14.04646 41246 ft 517 kts 123°
2026-04-29 14:33 48.57414 14.13674 41239 ft 517 kts 123°
2026-04-29 14:33 48.53398 14.22687 41237 ft 517 kts 123°
2026-04-29 14:34 48.49373 14.31694 41234 ft 517 kts 123°
2026-04-29 14:34 48.45346 14.40673 41230 ft 517 kts 123°
2026-04-29 14:35 48.41313 14.49636 41235 ft 517 kts 123°
2026-04-29 14:35 48.37270 14.58594 41232 ft 518 kts 123°
2026-04-29 14:36 48.33216 14.67545 41237 ft 518 kts 124°
2026-04-29 14:36 48.29172 14.76443 41236 ft 519 kts 124°
2026-04-29 14:37 48.25096 14.85383 41240 ft 519 kts 124°
2026-04-29 14:37 48.21012 14.94312 41243 ft 519 kts 124°
2026-04-29 14:38 48.16916 15.03237 41244 ft 520 kts 124°
2026-04-29 14:38 48.12814 15.12148 41245 ft 520 kts 124°
2026-04-29 14:39 48.08702 15.21049 41249 ft 520 kts 124°
2026-04-29 14:39 48.04581 15.29941 41247 ft 520 kts 124°
2026-04-29 14:40 48.00447 15.38833 41251 ft 521 kts 124°
2026-04-29 14:40 47.96303 15.47716 41251 ft 522 kts 124°
2026-04-29 14:41 47.92138 15.56616 41246 ft 523 kts 124°
2026-04-29 14:41 47.87985 15.65460 41244 ft 523 kts 125°
2026-04-29 14:42 47.83800 15.74344 41243 ft 524 kts 125°
2026-04-29 14:42 47.79614 15.83203 41236 ft 523 kts 125°
2026-04-29 14:43 47.75418 15.92052 41240 ft 523 kts 125°
2026-04-29 14:43 47.71218 16.00882 41235 ft 523 kts 125°
2026-04-29 14:44 47.67016 16.09687 41234 ft 523 kts 125°
2026-04-29 14:44 47.62807 16.18479 41230 ft 523 kts 125°
2026-04-29 14:45 47.58592 16.27257 41227 ft 523 kts 126°
2026-04-29 14:45 47.54400 16.35957 41225 ft 522 kts 126°
2026-04-29 14:46 47.50161 16.44729 41226 ft 523 kts 126°
2026-04-29 14:46 47.45925 16.53464 41228 ft 523 kts 126°
2026-04-29 14:47 47.41527 16.62018 41239 ft 522 kts 133°
2026-04-29 14:47 47.36619 16.69928 41226 ft 523 kts 134°
2026-04-29 14:48 47.31729 16.77863 41225 ft 523 kts 133°
2026-04-29 14:48 47.26846 16.85738 41226 ft 523 kts 134°
2026-04-29 14:49 47.21929 16.93645 41220 ft 524 kts 133°
2026-04-29 14:49 47.17004 17.01550 41223 ft 525 kts 134°
2026-04-29 14:50 47.12059 17.09453 41225 ft 526 kts 134°
2026-04-29 14:50 47.07105 17.17358 41221 ft 526 kts 134°
2026-04-29 14:51 47.02137 17.25252 41224 ft 527 kts 134°
2026-04-29 14:51 46.97155 17.33152 41220 ft 528 kts 134°